Location: CNYAC Observatory
(43.2150°N, 74.9500°W)
Time: 16:08:32
(UTC-04:00)

Daily predictions for brighter satellites

Satellite Brightness Start Highest point End
(mag) Time Altitude Azimuth Time Altitude Azimuth Time Altitude Azimuth
CZ-3C R/B 4.5 20:29:04 10° SW 20:55:53 20° SSW 21:04:02 10° SSE
Meteor 2-3 Rocket 3.8 20:51:40 10° S 20:57:18 86° W 21:02:56 10° N
FENGYUN 3A 4.3 20:53:03 10° S 20:58:22 59° W 21:03:42 10° NNW
Cosmos 1356 Rocket 3.5 20:55:21 10° S 20:59:33 67° E 21:03:49 10° NNE
Cosmos 1733 Rocket 3.3 20:55:22 10° S 20:59:39 52° E 21:03:55 10° NNE
Cosmos 2263 Rocket 3.4 20:54:57 10° SW 21:00:26 49° WNW 21:05:55 10° NNE
SL-8 R/B 3.7 20:57:36 10° SW 21:02:23 67° SSE 21:07:10 10° ENE
Cosmos 407 Rocket 4.0 20:57:34 10° N 21:02:37 45° ENE 21:07:42 10° SE
YAOGAN 11 4.2 20:58:33 10° SSE 21:03:03 89° E 21:07:39 10° NNW
Meteor 1-27 Rocket 4.3 21:01:42 10° N 21:06:56 39° ENE 21:12:05 10° SE
PSLV R/B 4.1 21:04:18 10° W 21:07:31 38° SSW 21:10:46 10° SE
Meteor 2-10 Rocket 3.9 21:03:16 10° N 21:09:07 87° W 21:14:50 10° S
ERS-1 Rocket 3.0 21:04:42 10° SSE 21:09:44 84° ENE 21:14:48 10° NNW
Cosmos 1452 Rocket 4.4 21:06:21 10° SSE 21:10:51 29° E 21:15:22 10° NE
Cosmos 1340 Rocket 3.6 21:08:43 10° SSW 21:12:38 55° WNW 21:16:37 10° N
Cosmos 909 Rocket 4.3 21:07:28 10° SSW 21:13:59 83° ESE 21:21:54 10° NE
Cosmos 1190 Rocket 4.0 21:10:06 10° NNW 21:15:18 71° ENE 21:20:29 10° SSE
CZ-4 DEB 3.8 21:13:22 10° S 21:16:26 46° W 21:19:31 10° NNW
Cosmos 1782 2.8 21:15:01 10° N 21:19:02 70° E 21:23:03 10° SSE
USA 234 4.4 21:17:43 10° E 21:22:02 18° ESE 21:26:18 10° SSE
Atlas Centaur 2 3.2 21:21:20 10° SSW 21:22:27 11° S 21:23:34 10° SSE
USA 186 4.3 21:20:56 10° SW 21:23:21 21° W 21:25:52 10° NW
Cosmos 1939 Rocket 2.8 21:20:37 10° SSE 21:24:28 90° WSW 21:28:25 10° NNW
Cosmos 1606 3.1 21:21:05 10° N 21:24:54 47° ENE 21:28:25 12° SSE
H-2A R/B 2.0 21:21:52 10° SSE 21:26:11 79° ENE 21:30:27 10° N
CZ-4B R/B 4.4 21:25:22 10° NE 21:29:33 27° E 21:33:05 13° SSE
Cosmos 2074 Rocket 4.3 21:23:18 10° SSW 21:29:34 74° W 21:35:52 10° N
Cosmos 1892 3.8 21:29:01 10° SSW 21:32:42 46° WNW 21:36:27 10° N
Nadezhda 3 Rocket 4.0 21:37:28 10° N 21:43:51 75° E 21:50:03 11° SSE
Cosmos 676 Rocket 4.0 21:40:16 10° NNW 21:45:29 79° ENE 21:49:42 16° SSE
Cosmos 1184 Rocket 3.4 21:45:10 19° SSE 21:47:03 37° E 21:50:10 10° NNE
Okean 2 Rocket 3.6 21:45:31 16° SSE 21:48:35 38° E 21:52:42 10° NNE
CENTAUR R/B 4.0 21:42:07 10° NW 21:49:29 44° WSW 21:57:12 10° S
Cosmos 2056 Rocket 4.3 21:44:31 10° SW 21:49:34 55° WNW 21:54:37 10° NNE
Cosmos 1174 3.1 21:47:36 10° NNW 21:50:55 83° ENE 21:52:28 26° SE
MetOp-B 4.1 21:46:46 13° SSE 21:51:31 81° ENE 21:56:54 10° NNW
Cosmos 1954 Rocket 4.0 21:46:31 10° NNW 21:51:43 70° ENE 21:55:30 19° SSE
Sich 1 Rocket 4.0 21:50:43 10° SSW 21:55:17 68° W 21:59:52 10° N
CZ-4 SHROUD 3.3 21:59:35 22° S 22:01:25 72° WSW 22:04:31 10° NNW
Intercosmos 25 3.4 22:02:34 26° SSE 22:04:11 43° E 22:07:14 10° NNE
ARGOS 3.2 22:01:08 20° SSE 22:04:48 65° ENE 22:10:07 10° N
Cosmos 2341 Rocket 4.0 21:58:36 10° S 22:04:55 82° E 22:11:13 10° N
ATLAS 5 CENTAUR R/B 3.6 21:59:50 10° NW 22:05:16 35° WSW 22:10:53 10° S
SL-27 R/B 4.4 22:02:54 10° NW 22:05:59 26° W 22:09:00 10° SSW
COS B Rocket 3.9 22:02:25 10° N 22:06:33 58° W 22:10:09 11° SSW
Cosmos 1782 Rocket 3.5 22:04:17 14° S 22:08:05 78° E 22:12:34 10° N
Landsat 7 4.4 22:09:28 25° SE 22:11:47 44° ENE 22:16:18 10° N
Okean 3 3.5 22:07:57 10° N 22:12:15 80° W 22:14:59 22° S
Meteor 2-13 Rocket 4.4 22:07:54 13° S 22:13:26 71° E 22:19:35 10° NNE
PSLV R/B 4.2 22:12:35 20° SSW 22:14:12 39° W 22:17:01 10° NNW
COSMOS 2487 2.5 22:10:45 10° NNW 22:14:23 84° WSW 22:15:53 33° SSE
DNEPR-1 R/B 4.1 22:09:24 10° NNW 22:14:56 62° NE 22:17:21 28° ESE
Timation 2 Rocket 3.9 22:10:20 10° NNW 22:16:20 68° ENE 22:19:46 26° SE
Cosmos 1238 Rocket 3.0 22:15:05 10° NNW 22:18:09 51° W 22:20:11 22° SSW
APEX 3.8 22:17:23 33° SSE 22:18:33 41° ESE 22:23:09 10° NE
Cosmos 2278 Rocket 2.1 22:14:21 10° SSW 22:20:00 85° ESE 22:25:44 10° NNE
Cosmos 1833 Rocket 3.6 22:16:36 10° N 22:21:48 37° ENE 22:24:36 23° ESE
SPOT 5 4.0 22:17:34 11° S 22:22:21 45° W 22:27:29 10° NNW
Cosmos 1023 Rocket 4.4 22:17:40 10° NNW 22:22:48 87° ENE 22:25:29 29° SSE
Cosmos 1975 Rocket 3.1 22:18:29 10° NNW 22:22:49 73° W 22:25:16 25° S
Cosmos 1844 4.2 22:18:02 10° SW 22:23:44 62° WNW 22:29:31 10° NNE
Cosmos 1825 3.0 22:21:19 10° SSW 22:24:57 49° W 22:28:41 10° N
CARTOSAT-1 4.2 22:24:39 31° ESE 22:26:02 41° ENE 22:30:07 10° N
SL-8 Rocket 4.0 22:21:27 18° S 22:26:11 72° E 22:32:24 10° NNE
ISS -2.9 22:23:28 10° SW 22:25:57 44° SSW 22:25:57 44° SSW
Terra 2.4 22:25:43 30° ESE 22:27:32 44° ENE 22:32:03 10° N
Cosmos 1844 Rocket 3.9 22:23:12 10° SW 22:28:33 43° WNW 22:33:56 10° NNE
YAOGAN 6 3.9 22:29:22 19° SSW 22:31:19 34° W 22:34:34 10° NNW
Cosmos 1408 4.0 22:29:48 10° SSW 22:33:13 37° WNW 22:36:39 10° N
Cosmos 1536 Rocket 4.0 22:31:15 10° N 22:35:36 48° ENE 22:36:45 38° ESE
Cosmos 1420 Rocket 3.9 22:31:27 13° SSW 22:36:15 88° ESE 22:41:30 10° NNE
H-2A R/B 2.2 22:34:39 33° SE 22:37:05 67° ENE 22:42:23 10° N
ASTEX 1 4.3 22:34:02 10° NNE 22:38:23 30° E 22:39:06 29° ESE
Cosmos 2082 Rocket 2.4 22:33:11 10° NNW 22:38:51 61° ENE 22:41:15 34° SE
Cosmos 1812 3.7 22:36:48 10° NNE 22:40:18 31° ENE 22:40:32 31° E
USA 245 4.2 22:40:07 26° SW 22:41:17 34° W 22:44:47 10° NNW
Cosmos 1242 Rocket 3.2 22:39:14 10° NNW 22:42:47 50° W 22:43:57 35° SSW
CZ-4C R/B 3.3 22:49:12 53° S 22:50:02 79° WSW 22:54:06 10° NNW
Cosmos 614 Rocket 3.9 22:45:38 10° NNW 22:50:44 81° WSW 22:52:31 41° S
Cosmos 2084 4.2 22:47:33 10° WSW 22:51:16 46° NW 22:54:59 10° NNE
Cosmos 2297 3.6 22:48:47 21° SSW 22:52:40 80° ESE 22:58:26 10° NNE
SL-08 RB Rocket 4.4 22:51:07 29° SSW 22:53:09 50° W 22:57:41 10° NNW
Cosmos 2151 Rocket 3.5 22:52:35 43° S 22:54:02 87° ESE 22:58:36 10° N
Cosmos 1140 Rocket 4.1 22:51:10 10° NNW 22:56:05 47° WSW 22:58:17 29° SSW
Cosmos 864 Rocket 4.4 22:54:36 30° S 22:57:49 85° E 23:04:01 10° N
Cosmos 2366 rocket 4.0 23:01:48 27° SSW 23:05:27 80° W 23:11:50 10° N
USA 234 3.1 22:59:11 10° NE 23:05:44 73° SE 23:12:15 10° SW
SAR-Lupe-2 3.6 23:11:18 74° NNE 23:11:18 74° NNE 23:14:39 10° N
Spot 2 3.9 23:10:59 10° NNE 23:15:22 69° ESE 23:15:27 69° ESE
Cosmos 1025 Rocket 4.2 23:18:04 10° NNE 23:21:53 30° ENE 23:21:53 30° ENE
Okean 1 Rocket 3.1 23:22:47 63° E 23:22:47 63° E 23:27:12 10° NNE
Okean 1-7 Rocket 3.6 23:19:04 10° N 23:23:33 63° E 23:23:41 63° E
Cosmos 1300 Rocket 3.4 23:23:43 75° ESE 23:23:49 76° E 23:28:16 10° NNE
DMSP B5D2-2 4.3 23:21:58 10° N 23:27:08 65° WNW 23:29:16 35° SW
BREEZE-M DEB (TANK) 3.8 23:25:05 10° NW 23:27:21 30° NNE 23:32:12 10° ENE
Cosmos 2369 Rocket 3.7 23:31:03 21° E 23:31:03 21° E 23:34:17 10° NE
Okean 1 3.4 23:26:40 10° NNW 23:30:38 74° WNW 23:30:38 74° WNW
IGS 5A 4.3 23:32:35 39° WSW 23:32:56 40° W 23:36:54 10° NNW
Meteor 1-20 Rocket 4.3 23:33:05 42° SSW 23:35:00 70° WNW 23:40:33 10° N
Cosmos 1000 Rocket 4.4 23:36:18 10° N 23:42:33 82° E 23:44:01 56° SSE
Cosmos 2239 Rocket 4.4 23:47:42 57° SSE 23:49:01 74° E 23:55:20 10° NNE
